Weather History for Torrington, WY

Change the Weather History Date:

Saturday, November 10, 2012

  Actual Average Record
Temperature  
Mean Temperature 24 °F 38 °F  
Max Temperature 35 °F 53 °F 79 °F (2005)
Min Temperature 13 °F 24 °F 10 °F (2014)
Degree Days  
Heating Degree Days 41 27  
Month to date heating degree days 205 246  
Since 1 July heating degree days 831 956  
Cooling Degree Days 0 0  
Month to date cooling degree days 0 0  
Year to date cooling degree days 1021 678  
Moisture  
Dew Point 26 °F    
Average Humidity 87    
Maximum Humidity 100    
Minimum Humidity 73    
Precipitation  
Precipitation 0.05 in 0.02 in 0.15 in (2004)
Month to date precipitation 0.05 0.20  
Year to date precipitation 6.96 13.60  
Sea Level Pressure  
Sea Level Pressure 29.65 in    
Wind  
Wind Speed 10 mph (North)    
Max Wind Speed 21 mph    
Max Gust Speed 26 mph    
Visibility 4 miles    
Events Fog , Snow    
T = Trace of Precipitation, MM = Missing Value Source: NWS Daily Summary

Daily Weather History Graph

Daily Weather History Graph

Search for Another Location

Airport:

Trip Planner

Search our weather history database for the weather conditions in past years. The results will help you decide how hot, cold, wet, or windy it might be!

Date:

Astronomy

Nov. 10, 2012 Rise Set
Actual Time 6:41 AM MST 4:39 PM MST
Civil Twilight 6:11 AM MST 5:09 PM MST
Nautical Twilight 5:37 AM MST 5:42 PM MST
Astronomical Twilight 5:05 AM MST 6:15 PM MST
Moon 2:45 AM MST (11/10) 2:30 PM MST (11/10)
Length of Visible Light 10h 57m
Length of Day
9h 58m
Waning Crescent, 14% of the Moon is Illuminated
Nov 10
Waning Crescent
Nov 13
New
Nov 20
First Quarter
Nov 28
Full
Dec 6
Last Quarter

Hourly Weather History & Observations

Time (MST) Temp. Windchill Dew Point Humidity Pressure Visibility Wind Dir Wind Speed Gust Speed Precip Events Conditions
12:08 AM 32.0 °F 22.1 °F 32.0 °F 100% 29.52 in 0.5 mi East 13.8 mph - N/A Fog Fog
12:53 AM 33.1 °F 24.4 °F 33.1 °F 100% 29.53 in 0.2 mi East 11.5 mph - N/A Fog Fog
1:53 AM 34.0 °F 29.8 °F 34.0 °F 100% 29.54 in 0.5 mi ESE 4.6 mph - N/A Fog Fog
2:18 AM 33.8 °F 30.8 °F 33.8 °F 100% 29.53 in 1.0 mi East 3.5 mph - N/A   Mist
2:53 AM 34.0 °F 31.0 °F 34.0 °F 100% 29.52 in 1.5 mi NE 3.5 mph - N/A   Overcast
3:25 AM 35.6 °F 29.2 °F 33.8 °F 93% 29.51 in 0.8 mi NE 8.1 mph - N/A   Overcast
3:34 AM 33.8 °F 26.4 °F 33.8 °F 100% 29.51 in 1.2 mi North 9.2 mph - N/A   Overcast
3:53 AM 34.0 °F 27.2 °F 34.0 °F 100% 29.52 in 1.8 mi North 8.1 mph - N/A   Overcast
4:00 AM 33.8 °F 27.0 °F 33.8 °F 100% 29.53 in 2.5 mi NW 8.1 mph - N/A   Overcast
4:09 AM 33.8 °F 30.8 °F 33.8 °F 100% 29.53 in 3.0 mi NNE 3.5 mph - N/A   Overcast
4:48 AM 35.6 °F 30.7 °F 33.8 °F 93% 29.54 in 2.0 mi North 5.8 mph - N/A   Overcast
4:53 AM 34.0 °F 28.0 °F 34.0 °F 100% 29.56 in 2.0 mi North 6.9 mph - N/A   Overcast
5:18 AM 35.6 °F 31.7 °F 33.8 °F 93% 29.57 in 4.0 mi North 4.6 mph - N/A   Overcast
5:46 AM 33.8 °F 27.0 °F 33.8 °F 100% 29.57 in 6.0 mi NNE 8.1 mph - N/A   Overcast
5:53 AM 34.0 °F 27.2 °F 33.1 °F 96% 29.58 in 7.0 mi NNE 8.1 mph - N/A   Overcast
6:07 AM 33.8 °F 27.7 °F 32.0 °F 93% 29.57 in 8.0 mi NNE 6.9 mph - N/A   Overcast
6:53 AM 34.0 °F 27.2 °F 32.0 °F 92% 29.62 in 10.0 mi NNW 8.1 mph - N/A   Overcast
7:39 AM 35.6 °F 29.2 °F 30.2 °F 81% 29.59 in 10.0 mi North 8.1 mph - N/A   Overcast
7:53 AM 35.1 °F 27.9 °F 32.0 °F 89% 29.62 in 10.0 mi North 9.2 mph - N/A   Overcast
8:05 AM 33.8 °F 25.8 °F 30.2 °F 87% 29.59 in 2.5 mi North 10.4 mph - 0.00 in Snow Light Snow
8:13 AM 33.8 °F 25.8 °F 32.0 °F 93% 29.58 in 2.5 mi NNE 10.4 mph - 0.00 in Snow Light Snow
8:21 AM 33.8 °F 26.4 °F 32.0 °F 93% 29.58 in 5.0 mi North 9.2 mph - 0.00 in Snow Light Snow
8:32 AM 33.8 °F 26.4 °F 32.0 °F 93% 29.57 in 9.0 mi North 9.2 mph - 0.00 in   Overcast
8:53 AM 34.0 °F 29.8 °F 32.0 °F 92% 29.59 in 10.0 mi North 4.6 mph - 0.00 in   Overcast
9:05 AM 33.8 °F 27.0 °F 32.0 °F 93% 29.56 in 10.0 mi North 8.1 mph - N/A   Overcast
9:53 AM 34.0 °F 24.6 °F 30.0 °F 85% 29.60 in 10.0 mi North 13.8 mph - N/A   Overcast
10:40 AM 32.0 °F 22.1 °F 26.6 °F 80% 29.61 in 3.0 mi NNW 13.8 mph 21.9 mph 0.00 in Snow Light Snow
10:46 AM 30.2 °F 18.1 °F 26.6 °F 86% 29.61 in 1.8 mi NNW 18.4 mph 23.0 mph 0.00 in Snow Light Snow
10:53 AM 30.0 °F 20.0 °F 27.0 °F 88% 29.67 in 1.2 mi NNW 12.7 mph 23.0 mph 0.00 in Snow Light Snow
11:09 AM 30.2 °F 21.3 °F 26.6 °F 86% 29.61 in 3.0 mi North 10.4 mph 21.9 mph 0.01 in Snow Light Snow
11:23 AM 30.2 °F 20.8 °F 26.6 °F 86% 29.61 in 1.8 mi NNW 11.5 mph 19.6 mph 0.01 in Snow Light Snow
11:53 AM 28.9 °F 19.2 °F 25.0 °F 85% 29.66 in 1.8 mi North 11.5 mph 19.6 mph 0.01 in Snow Light Snow
12:02 PM 28.4 °F 18.0 °F 24.8 °F 86% 29.60 in 2.0 mi NNW 12.7 mph 20.7 mph 0.00 in Snow Light Snow
12:12 PM 28.4 °F 18.0 °F 24.8 °F 86% 29.61 in 1.2 mi NW 12.7 mph - 0.00 in Snow Light Snow
12:21 PM 28.4 °F 17.0 °F 24.8 °F 86% 29.60 in 0.8 mi North 15.0 mph 20.7 mph 0.00 in Snow Light Snow
12:34 PM 28.4 °F 19.1 °F 24.8 °F 86% 29.61 in 1.0 mi North 10.4 mph - 0.00 in Snow Light Snow
12:51 PM 26.6 °F 16.8 °F 24.8 °F 93% 29.61 in 2.5 mi NNW 10.4 mph 21.9 mph 0.01 in Snow Light Snow
12:53 PM 27.0 °F 16.7 °F 24.1 °F 89% 29.68 in 2.0 mi NNW 11.5 mph 21.9 mph 0.01 in Snow Light Snow
1:01 PM 26.6 °F 16.8 °F 24.8 °F 93% 29.61 in 1.0 mi North 10.4 mph 23.0 mph 0.00 in Snow Light Snow
1:10 PM 26.6 °F 16.8 °F 24.8 °F 93% 29.62 in 0.8 mi NNW 10.4 mph 19.6 mph 0.00 in Snow Light Snow
1:17 PM 26.6 °F 16.8 °F 24.8 °F 93% 29.62 in 0.8 mi North 10.4 mph 18.4 mph 0.00 in Snow Light Snow
1:27 PM 26.6 °F 15.7 °F 24.8 °F 93% 29.62 in 0.8 mi NNW 12.7 mph 18.4 mph 0.00 in Snow Light Snow
1:37 PM 24.8 °F 12.9 °F 23.0 °F 93% 29.63 in 0.5 mi NW 13.8 mph - 0.01 in Fog , Snow Snow
1:53 PM 25.0 °F 13.6 °F 23.0 °F 92% 29.71 in 0.5 mi NW 12.7 mph - 0.01 in Fog , Snow Snow
2:11 PM 24.8 °F 11.5 °F 21.2 °F 86% 29.65 in 0.8 mi NW 17.3 mph 26.5 mph 0.00 in Snow Light Snow
2:53 PM 24.1 °F 13.1 °F 21.9 °F 91% 29.74 in 0.8 mi NNW 11.5 mph - 0.01 in Snow Light Snow
3:09 PM 24.8 °F 13.4 °F 21.2 °F 86% 29.68 in 0.5 mi NNW 12.7 mph 23.0 mph 0.00 in Fog , Snow Snow
3:31 PM 24.8 °F 12.9 °F 19.4 °F 80% 29.69 in 1.0 mi NNW 13.8 mph 21.9 mph 0.00 in Snow Light Snow
3:51 PM 24.8 °F 15.3 °F 21.2 °F 86% 29.70 in 2.0 mi North 9.2 mph 16.1 mph 0.01 in Snow Light Snow
3:53 PM 24.1 °F 13.7 °F 19.9 °F 84% 29.78 in 2.0 mi North 10.4 mph - 0.01 in Snow Light Snow
4:00 PM 24.8 °F 14.6 °F 19.4 °F 80% 29.71 in 3.0 mi NNW 10.4 mph 18.4 mph 0.00 in Snow Light Snow
4:17 PM 24.8 °F 14.0 °F 19.4 °F 80% 29.72 in 1.8 mi NNW 11.5 mph 18.4 mph 0.00 in Snow Light Snow
4:32 PM 23.0 °F 11.7 °F 19.4 °F 86% 29.72 in 3.0 mi North 11.5 mph 19.6 mph 0.00 in Snow Light Snow
4:53 PM 24.1 °F 13.1 °F 18.0 °F 77% 29.83 in 10.0 mi NNW 11.5 mph 20.7 mph 0.00 in   Overcast
5:07 PM 23.0 °F 10.1 °F 15.8 °F 74% 29.75 in 10.0 mi NNW 15.0 mph 21.9 mph 0.00 in   Overcast
5:53 PM 21.9 °F 9.8 °F 15.1 °F 75% 29.87 in 10.0 mi NNW 12.7 mph - 0.00 in   Overcast
6:53 PM 19.9 °F 8.6 °F 12.9 °F 74% 29.89 in 10.0 mi NW 10.4 mph - N/A   Mostly Cloudy
7:53 PM 19.9 °F 8.6 °F 12.0 °F 71% 29.91 in 10.0 mi NW 10.4 mph - N/A   Partly Cloudy
9:53 PM 16.0 °F 2.3 °F 9.0 °F 74% 29.98 in 10.0 mi NW 12.7 mph - N/A   Clear
10:53 PM 15.1 °F 1.8 °F 8.1 °F 74% 29.99 in 10.0 mi NW 11.5 mph - N/A   Clear
11:53 PM 14.0 °F -0.2 °F 7.0 °F 74% 30.00 in 10.0 mi NNW 12.7 mph - N/A   Clear